OPS 4682 DEB, 38418

Orbit data source: Space-Track

OPS 4682 DEB, 38418 is space debris in LEO originally from a launch on Sat, 03 Apr 1965 UTC launched from the Air Force Western Test Range (AFWTR). Debris objects in space refer to the collection of defunct objects orbiting the Earth. Examples of debris include non-operational satellites, rocket bodies, and fragments generated from explosions, collisions, or faulty payload assembly.

Loading next visibility...
Identifier
38418, 1965-027DX
Orbit
LEO
Country
Flag of USUS
Related business
Manufacturer
Unknown
Mission
Spacecraft
Bus & Motor
Unknown
Mass
Unknown
Launch date (UTC)
1965-04-03 (61 years ago)
Launch vehicle
Unknown
Launch site
Air Force Western Test Range (AFWTR)
Object type
Payload
Rocket body
Debris
Shape & HBR
Unknown shape, 0.1 m
Radar Cross Section
Medium (>0.1 m² and <1 m²)

Expand to show TLE details & history
Last TLE update: 1 week ago

TLE from 1 week ago
0 OPS 4682 DEB
1 38418U 65027DX  26228.10881117 -.00000527  00000-0 -17472-2 0  9990
2 38418  90.2446  10.0876 0029998  61.2922 299.1210 13.01019717559342
Epoch: 2026-08-16T02:36Z
TLE epoch observation values (Epoch: 2026-08-16T02:36:41.285Z)
Latitude
-0°
Longitude
6.40552°
Altitude
1,249.882 km
Speed
7.235 km/s
True Right ascension
00h 40m 21s
True Declination
0° 00' 00"
Sunlit
Object was in full shadow at epoch
Visualization orbit readout
Latitude
Unknown
Longitude
Unknown
Altitude
Unknown
Speed
Unknown
Apparent Right ascension
Unknown
Apparent Declination
Unknown
Sunlit
N/A
Visualization observer readout
Local Sidereal Time
19:32:19
Azimuth
Unknown
Elevation
Unknown
Doppler factor
Unknown
Orbital elements
Apogee altitude
1,278.118 km
Perigee altitude
1,232.321 km
Semi-major axis
7,633.356 km
Eccentricity
0.003
Inclination
90.2446°
RAAN
10.0876°
Arg. of periapsis
61.2922°
True anomaly
298.82015°
Mean anomaly
299.121°
Eccentric anomaly
298.97063°
Mean motion
3.25439 °/min
Orbital period
110.62 mins
BSTAR
-0.0017472
Loading maneuver chart data...
Computing Atmospheric mass density...
Loading historical data...
Loading historical data...
Loading historical data...
Loading historical data...
Loading historical data...
Loading historical data...
Loading historical data...

Documentation

Showing up to 5 results
|